Las Vegas, NM

7:13 PM MDT on July 20, 2017 (GMT -0600)
Las Vegas Municipal

Weather History for KLVS - May, 2013

Change the Weather History Date:

Wednesday, May 8, 2013

  Actual Average Record
Temperature  
Mean Temperature 52 °F -  
Max Temperature 66 °F 70 °F 86 °F (1989)
Min Temperature 39 °F 38 °F 22 °F (1984)
Degree Days  
Heating Degree Days 12    
Growing Degree Days 2 (Base 50)    
Moisture  
Dew Point 18 °F    
Average Humidity 28    
Maximum Humidity 63    
Minimum Humidity 9    
Precipitation  
Precipitation 0.00 in - - ()
Sea Level Pressure  
Sea Level Pressure 29.79 in    
Wind  
Wind Speed 10 mph (West)    
Max Wind Speed 29 mph    
Max Gust Speed 46 mph    
Visibility 10 miles    
Events      
Averages and records for this station are not official NWS values.
T = Trace of Precipitation, MM = Missing Value Source: NWS Daily Summary

Daily Weather History Graph

Daily Weather History Graph

Search for Another Location

Airport or City:

Trip Planner

Search our weather history database for the weather conditions in past years. The results will help you decide how hot, cold, wet, or windy it might be!

Date:

Astronomy

May. 08, 2013 Rise Set
Actual Time 6:01 AM MDT 7:53 PM MDT
Civil Twilight 5:33 AM MDT 8:21 PM MDT
Nautical Twilight 4:59 AM MDT 8:55 PM MDT
Astronomical Twilight 4:23 AM MDT 9:31 PM MDT
Moon 5:08 AM MDT (5/8) 6:55 PM MDT (5/8)
Length of Visible Light 14h 47m
Length of Day
13h 51m
Waning Crescent, 2% of the Moon is Illuminated
May 8
Waning Crescent
May 9
New
May 17
First Quarter
May 24
Full
May 31
Last Quarter

Hourly Weather History & Observations

Time (MDT) Temp. Windchill Dew Point Humidity Pressure Visibility Wind Dir Wind Speed Gust Speed Precip Events Conditions
12:53 AM 53.1 °F - 25.0 °F 34% 29.73 in 10.0 mi WSW 5.8 mph - N/A   Clear
1:53 AM 48.0 °F - 24.1 °F 39% 29.73 in 10.0 mi WSW 5.8 mph - N/A   Clear
2:53 AM 39.0 °F 35.7 °F 24.1 °F 55% 29.76 in 10.0 mi NNE 4.6 mph - N/A   Clear
3:53 AM 45.0 °F 42.6 °F 25.0 °F 46% 29.74 in 10.0 mi North 4.6 mph - N/A   Clear
4:53 AM 41.0 °F 37.1 °F 25.0 °F 53% 29.76 in 10.0 mi North 5.8 mph - N/A   Clear
5:53 AM 41.0 °F 35.2 °F 27.0 °F 57% 29.78 in 10.0 mi NNW 9.2 mph - N/A   Clear
6:53 AM 39.9 °F 35.8 °F 28.0 °F 63% 29.82 in 10.0 mi NE 5.8 mph - N/A   Clear
7:53 AM 50.0 °F - 30.0 °F 46% 29.82 in 10.0 mi North 8.1 mph - N/A   Clear
8:53 AM 55.9 °F - 30.9 °F 39% 29.81 in 10.0 mi Variable 4.6 mph - N/A   Clear
9:53 AM 60.1 °F - 16.0 °F 18% 29.78 in 10.0 mi West 13.8 mph - N/A   Clear
10:53 AM 60.1 °F - 16.0 °F 18% 29.80 in 10.0 mi Calm Calm - N/A   Clear
11:53 AM 64.0 °F - 10.9 °F 13% 29.78 in 10.0 mi SSW 10.4 mph 27.6 mph N/A   Clear
12:53 PM 66.0 °F - 6.1 °F 9% 29.75 in 10.0 mi WSW 25.3 mph 36.8 mph N/A   Clear
1:53 PM 64.9 °F - 7.0 °F 10% 29.77 in 10.0 mi SW 25.3 mph 36.8 mph N/A   Clear
2:53 PM 64.9 °F - 12.0 °F 13% 29.80 in 10.0 mi SSW 20.7 mph 35.7 mph N/A   Clear
3:53 PM 64.9 °F - 12.9 °F 13% 29.76 in 10.0 mi West 26.5 mph 46.0 mph N/A   Partly Cloudy
4:53 PM 64.9 °F - 12.0 °F 13% 29.78 in 10.0 mi WSW 28.8 mph 36.8 mph N/A   Clear
5:53 PM 62.1 °F - 14.0 °F 15% 29.80 in 10.0 mi SW 25.3 mph 35.7 mph N/A   Partly Cloudy
6:53 PM 59.0 °F - 12.9 °F 16% 29.83 in 10.0 mi West 17.3 mph - N/A   Clear
7:53 PM 55.9 °F - 12.9 °F 18% 29.83 in 10.0 mi West 10.4 mph - N/A   Clear
8:53 PM 51.1 °F - 12.0 °F 21% 29.83 in 10.0 mi WSW 5.8 mph - N/A   Clear
9:53 PM 53.1 °F - 12.9 °F 20% 29.83 in 10.0 mi West 4.6 mph - N/A   Clear
10:53 PM 48.9 °F - 12.0 °F 23% 29.85 in 10.0 mi NW 9.2 mph - N/A   Clear
11:53 PM 43.0 °F 38.2 °F 12.0 °F 28% 29.86 in 10.0 mi North 8.1 mph - N/A   Clear